Weather History for Inverness, FL

Change the Weather History Date:

Thursday, January 24, 2013

  Actual Average (KOCF) Record (KOCF)
Temperature  
Mean Temperature 11 °C -  
Max Temperature 21 °C 19 °C 27 °C (2002)
Min Temperature 1 °C 5 °C -6 °C (2003)
Degree Days  
Heating Degree Days 14    
Growing Degree Days 1 (Base 50)    
Moisture  
Dew Point 7 °C    
Average Humidity 79    
Maximum Humidity 100    
Minimum Humidity 43    
Precipitation  
Precipitation 0.00 mm - - ()
Sea Level Pressure  
Sea Level Pressure 1026 hPa    
Wind  
Wind Speed 2 km/h (NW)    
Max Wind Speed 13 km/h    
Max Gust Speed 26 km/h    
Visibility 14 kilometers    
Events      
Averages and records for this station are not official NWS values.
T = Trace of Precipitation, MM = Missing Value Source: NWS Daily Summary

Daily Weather History Graph

Daily Weather History Graph

Search for Another Location

Airport:

Trip Planner

Search our weather history database for the weather conditions in past years. The results will help you decide how hot, cold, wet, or windy it might be!

Date:

Astronomy

Jan. 24, 2013 Rise Set
Actual Time 7:21 AM EST 6:02 PM EST
Civil Twilight 6:56 AM EST 6:27 PM EST
Nautical Twilight 6:27 AM EST 6:55 PM EST
Astronomical Twilight 5:59 AM EST 7:23 PM EST
Moon 4:05 PM EST (1/24) 5:14 AM EST (1/24)
Length of Visible Light 11h 30m
Length of Day
10h 40m
Waxing Gibbous, 94% of the Moon is Illuminated
Jan 24
Waxing Gibbous
Jan 26
Full
Feb 3
Last Quarter
Feb 10
New
Feb 17
First Quarter

Hourly Weather History & Observations

Time (EST) Temp. Windchill Dew Point Humidity Pressure Visibility Wind Dir Wind Speed Gust Speed Precip Events Conditions
12:15 AM 4.0 °C - 2.0 °C 87% 1026.6 hPa 16.1 km Calm Calm - N/A   Clear
12:35 AM 3.0 °C - 2.0 °C 93% 1026.6 hPa 16.1 km Calm Calm - N/A   Clear
1:15 AM 3.0 °C - 2.0 °C 93% 1026.6 hPa 16.1 km Calm Calm - N/A   Clear
1:35 AM 2.0 °C - 2.0 °C 100% 1026.6 hPa 16.1 km Calm Calm - N/A   Clear
1:55 AM 3.0 °C - 2.0 °C 93% 1026.3 hPa 16.1 km Calm Calm - N/A   Clear
2:15 AM 3.0 °C - 2.0 °C 93% 1026.3 hPa 16.1 km Calm Calm - N/A   Clear
2:55 AM 2.0 °C - 2.0 °C 100% 1026.3 hPa 16.1 km Calm Calm - N/A   Clear
3:15 AM 2.0 °C - 2.0 °C 100% 1026.3 hPa 16.1 km Calm Calm - N/A   Clear
3:35 AM 2.0 °C - 2.0 °C 100% 1026.6 hPa 16.1 km Calm Calm - N/A   Clear
3:55 AM 2.0 °C - 2.0 °C 100% 1026.6 hPa 16.1 km Calm Calm - N/A   Clear
4:15 AM 2.0 °C - 2.0 °C 100% 1026.3 hPa 16.1 km Calm Calm - N/A   Clear
4:35 AM 2.0 °C - 2.0 °C 100% 1026.3 hPa 16.1 km Calm Calm - N/A   Clear
4:55 AM 2.0 °C - 2.0 °C 100% 1026.0 hPa 16.1 km Calm Calm - N/A   Clear
5:15 AM 2.0 °C -0.2 °C 2.0 °C 100% 1026.0 hPa 16.1 km South 7.4 km/h / 2.1 m/s - N/A   Clear
5:35 AM 2.0 °C 0.5 °C 2.0 °C 100% 1025.6 hPa 16.1 km SSW 5.6 km/h / 1.5 m/s - N/A   Clear
5:55 AM 2.0 °C - 2.0 °C 100% 1026.3 hPa 16.1 km Calm Calm - N/A   Clear
6:15 AM 3.0 °C - 2.0 °C 93% 1026.3 hPa 16.1 km Calm Calm - N/A   Clear
6:35 AM 3.0 °C - 2.0 °C 93% 1026.0 hPa 16.1 km Calm Calm - N/A   Clear
6:55 AM 2.0 °C - 2.0 °C 100% 1026.3 hPa 16.1 km Calm Calm - N/A   Clear
7:15 AM 1.0 °C - 1.0 °C 100% 1026.6 hPa 16.1 km Calm Calm - N/A   Clear
7:35 AM 2.0 °C - 2.0 °C 100% 1026.6 hPa 11.3 km Calm Calm - N/A   Clear
7:55 AM 2.0 °C - 2.0 °C 100% 1027.0 hPa 16.1 km Calm Calm - N/A   Clear
8:15 AM 4.0 °C - 3.0 °C 93% 1027.0 hPa 16.1 km Calm Calm - N/A   Clear
8:35 AM 6.0 °C - 5.0 °C 93% 1027.0 hPa 16.1 km Calm Calm - N/A   Clear
8:55 AM 9.0 °C - 7.0 °C 87% 1027.3 hPa 16.1 km Calm Calm - N/A   Clear
9:15 AM 11.0 °C - 8.0 °C 82% 1027.7 hPa 16.1 km Calm Calm - N/A   Clear
9:35 AM 14.0 °C - 9.0 °C 72% 1027.7 hPa 16.1 km Calm Calm - N/A   Clear
9:55 AM 16.0 °C - 8.0 °C 59% 1028.0 hPa 16.1 km Calm Calm - N/A   Clear
10:15 AM 17.0 °C - 8.0 °C 55% 1027.7 hPa 8.0 km Calm Calm - N/A   Haze
10:35 AM 18.0 °C - 8.0 °C 52% 1027.7 hPa 8.0 km West 9.3 km/h / 2.6 m/s - N/A   Haze
10:55 AM 19.0 °C - 7.0 °C 46% 1027.7 hPa 11.3 km NNW 5.6 km/h / 1.5 m/s - N/A   Clear
11:15 AM 20.0 °C - 7.0 °C 43% 1027.7 hPa 11.3 km WNW 9.3 km/h / 2.6 m/s - N/A   Clear
11:35 AM 20.0 °C - 7.0 °C 43% 1027.7 hPa 8.0 km NNW 11.1 km/h / 3.1 m/s - N/A   Haze
11:55 AM 20.0 °C - 7.0 °C 43% 1027.3 hPa 8.0 km WNW 9.3 km/h / 2.6 m/s - N/A   Haze
12:15 PM 20.0 °C - 7.0 °C 43% 1026.6 hPa 11.3 km NNW 13.0 km/h / 3.6 m/s - N/A   Clear
12:35 PM 21.0 °C - 8.0 °C 43% 1026.3 hPa 16.1 km North 13.0 km/h / 3.6 m/s - N/A   Clear
12:55 PM 21.0 °C - 8.0 °C 43% 1026.0 hPa 16.1 km NNW 11.1 km/h / 3.1 m/s 25.9 km/h / 7.2 m/s N/A   Clear
1:15 PM 21.0 °C - 9.0 °C 46% 1025.6 hPa 16.1 km NNW 13.0 km/h / 3.6 m/s - N/A   Clear
1:35 PM 21.0 °C - 10.0 °C 49% 1025.3 hPa 16.1 km NW 9.3 km/h / 2.6 m/s - N/A   Clear
1:55 PM 21.0 °C - 10.0 °C 49% 1024.9 hPa 16.1 km West 5.6 km/h / 1.5 m/s - N/A   Clear
2:35 PM 21.0 °C - 11.0 °C 53% 1024.9 hPa 16.1 km NNW 9.3 km/h / 2.6 m/s - N/A   Clear
2:55 PM 21.0 °C - 11.0 °C 53% 1024.9 hPa 16.1 km WNW 9.3 km/h / 2.6 m/s - N/A   Clear
3:15 PM 21.0 °C - 11.0 °C 53% 1024.6 hPa 16.1 km NW 5.6 km/h / 1.5 m/s - N/A   Clear
3:35 PM 21.0 °C - 11.0 °C 53% 1024.6 hPa 16.1 km North 9.3 km/h / 2.6 m/s - N/A   Clear
3:55 PM 21.0 °C - 11.0 °C 53% 1024.6 hPa 16.1 km NNW 7.4 km/h / 2.1 m/s - N/A   Clear
4:15 PM 21.0 °C - 12.0 °C 56% 1024.6 hPa 16.1 km West 5.6 km/h / 1.5 m/s - N/A   Clear
4:35 PM 20.0 °C - 12.0 °C 60% 1024.6 hPa 16.1 km West 9.3 km/h / 2.6 m/s - N/A   Clear
4:55 PM 19.0 °C - 12.0 °C 64% 1024.6 hPa 16.1 km Calm Calm - N/A   Clear
5:15 PM 18.0 °C - 11.0 °C 64% 1024.6 hPa 16.1 km West 5.6 km/h / 1.5 m/s - N/A   Clear
5:35 PM 18.0 °C - 11.0 °C 64% 1024.6 hPa 16.1 km Calm Calm - N/A   Clear
5:55 PM 17.0 °C - 11.0 °C 68% 1024.9 hPa 16.1 km Calm Calm - N/A   Clear
6:15 PM 16.0 °C - 11.0 °C 72% 1024.9 hPa 16.1 km Calm Calm - N/A   Clear
6:35 PM 16.0 °C - 11.0 °C 72% 1025.3 hPa 11.3 km Calm Calm - N/A   Clear
6:55 PM 15.0 °C - 11.0 °C 77% 1025.3 hPa 16.1 km Calm Calm - N/A   Clear
7:15 PM 14.0 °C - 11.0 °C 82% 1025.3 hPa 16.1 km Calm Calm - N/A   Clear
7:35 PM 13.0 °C - 11.0 °C 88% 1025.6 hPa 16.1 km Calm Calm - N/A   Clear
7:55 PM 13.0 °C - 11.0 °C 88% 1025.6 hPa 16.1 km Calm Calm - N/A   Clear
8:15 PM 12.0 °C - 11.0 °C 94% 1025.6 hPa 16.1 km Calm Calm - N/A   Clear
8:35 PM 12.0 °C - 11.0 °C 94% 1025.6 hPa 16.1 km Calm Calm - N/A   Clear
8:55 PM 11.0 °C - 11.0 °C 100% 1025.6 hPa 16.1 km Calm Calm - N/A   Clear
9:15 PM 11.0 °C - 11.0 °C 100% 1025.6 hPa 8.0 km Calm Calm - N/A   Clear
9:35 PM 11.0 °C - 10.0 °C 94% 1026.0 hPa 11.3 km Calm Calm - N/A   Clear
9:55 PM 10.0 °C - 10.0 °C 100% 1026.0 hPa 8.0 km Calm Calm - N/A   Clear
10:15 PM 10.0 °C - 10.0 °C 100% 1026.0 hPa 8.0 km Calm Calm - N/A   Clear
10:35 PM 10.0 °C - 9.0 °C 94% 1026.0 hPa 8.0 km Calm Calm - N/A   Scattered Clouds
10:55 PM 9.0 °C - 9.0 °C 100% 1026.3 hPa 1.2 km Calm Calm - N/A   Mist
11:15 PM 9.0 °C - 9.0 °C 100% 1026.3 hPa 11.3 km Calm Calm - N/A   Clear
11:35 PM 9.0 °C - 9.0 °C 100% 1026.6 hPa 4.8 km Calm Calm - N/A   Scattered Clouds
11:55 PM 8.0 °C - 8.0 °C 100% 1026.6 hPa 11.3 km Calm Calm - N/A   Mostly Cloudy